Weather observations for the past three days for
Lihue, Lihue Airport
Imperial (Metric)
Date Time (hst) Wind (mph) Vis. (mi.) Weather Sky Cond. Temperature (ºF) Relative Humidity Wind Chill (°F) Heat Index (°F) Pressure Precipitation (in)
Air Dwpt 6 hour altimeter (in) sea level (mb) 1 hr 3 hr 6 hr
Max. Min.
20 14:53 NE 10 10.00 Partly Cloudy SCT022 84 70 63% 88 30.06 1017.5
20 13:53 NE 10 10.00 A Few Clouds FEW023 FEW036 84 70 84 79 63% 88 30.07 1017.8
20 12:53 NE 12 10.00 Partly Cloudy FEW021 SCT028 SCT047 84 71.1 65% 89 30.08 1018.3
20 11:53 E 12 10.00 Partly Cloudy FEW024 SCT034 82.9 70 65% 87 30.09 1018.4
20 10:53 E 14 10.00 A Few Clouds FEW024 FEW031 82.9 69.1 63% 87 30.09 1018.5
20 09:53 E 12 10.00 Partly Cloudy SCT023 SCT033 82.9 70 65% 87 30.09 1018.6
20 08:53 NE 10 10.00 A Few Clouds FEW021 81 70 69% 84 30.09 1018.6
20 07:53 NE 10 10.00 Overcast FEW022 OVC046 79 68 79 72 69% 81 30.08 1018.3
20 06:53 NE 12 10.00 Fair CLR 77 68 74% 79 30.07 1018.0
20 05:53 NE 9 10.00 Partly Cloudy FEW023 SCT029 SCT035 75.9 68 77% 77 30.06 1017.7
20 04:53 NE 10 10.00 Fair CLR 75.9 66.9 74% 77 30.06 1017.5
20 03:53 NE 9 10.00 A Few Clouds FEW025 75.9 66.9 74% 77 30.06 1017.6
20 02:53 NE 10 10.00 A Few Clouds FEW023 75.9 66.9 74% 77 30.07 1018.0
20 01:53 NE 10 10.00 Partly Cloudy FEW021 SCT030 75.9 69.1 78.1 75.9 79% 77 30.08 1018.2
20 00:53 NE 13 10.00 A Few Clouds FEW022 75.9 68 77% 77 30.09 1018.6
19 23:53 NE 13 10.00 A Few Clouds FEW024 77 68 74% 79 30.1 1018.9
19 22:53 NE 17 10.00 A Few Clouds FEW021 77 70 79% 79 30.09 1018.7
19 21:53 NE 14 10.00 A Few Clouds FEW023 FEW031 77 69.1 77% 79 30.1 1019.0
19 20:53 NE 10 10.00 Mostly Cloudy SCT021 BKN029 BKN038 78.1 70 76% 80 30.1 1018.9
19 19:53 NE 13 10.00 A Few Clouds FEW021 77 69.1 84.9 77 77% 79 30.08 1018.4
19 18:53 NE 12 10.00 Fair CLR 78.1 68 71% 80 30.07 1018.0
19 17:53 NE 12 10.00 Fair CLR 81 70 69% 84 30.06 1017.5
19 16:53 NE 10 10.00 Partly Cloudy SCT022 81 70 69% 84 30.06 1017.4
19 15:53 NE 10 10.00 A Few Clouds FEW022 82 69.1 65% 85 30.06 1017.5
19 14:53 NE 12 10.00 Fair CLR 84 69.1 61% 88 30.07 1017.8
19 13:53 E 10 10.00 Mostly Cloudy SCT023 BKN055 81 69.1 84 79 67% 84 30.08 1018.4
19 12:53 NE 10 10.00 A Few Clouds FEW024 82.9 68 61% 86 30.09 1018.7
19 11:53 NE 9 10.00 A Few Clouds FEW039 82.9 66.9 59% 86 30.09 1018.7
19 10:53 NE 13 10.00 Partly Cloudy SCT025 SCT036 82 66.9 60% 85 30.1 1019.1
19 09:53 NE 13 10.00 A Few Clouds FEW024 82 68 63% 85 30.09 1018.6
19 08:53 NE 13 10.00 Fair CLR 81 66.9 62% 83 30.09 1018.6
19 07:53 NE 12 10.00 A Few Clouds FEW027 80.1 66.9 80.1 75 64% 82 30.09 1018.5
19 06:53 NE 13 10.00 A Few Clouds FEW026 77 66 69% 79 30.08 1018.1
19 05:53 NE 12 10.00 A Few Clouds FEW027 75 66 74% 76 30.06 1017.6
19 04:53 NE 10 10.00 A Few Clouds FEW026 75.9 66.9 74% 77 30.06 1017.4
19 03:53 NE 15 10.00 A Few Clouds FEW025 75.9 66.9 74% 77 30.06 1017.7
19 02:53 NE 13 10.00 Partly Cloudy SCT024 SCT032 75.9 66.9 74% 77 30.07 1017.8
19 01:53 NE 12 10.00 A Few Clouds FEW024 75.9 66.9 77 75.9 74% 77 30.08 1018.1
19 00:53 NE 10 10.00 Fair CLR 75.9 66.9 74% 77 30.09 1018.5
18 23:53 NE 15 10.00 Partly Cloudy SCT026 SCT045 77 68 74% 79 30.1 1019.0
18 22:53 NE 14 10.00 A Few Clouds FEW025 77 68 74% 79 30.1 1019.1
18 21:53 NE 14 10.00 A Few Clouds FEW024 77 68 74% 79 30.1 1018.9
18 20:53 NE 15 10.00 A Few Clouds FEW026 77 68 74% 79 30.09 1018.6
18 19:53 NE 13 10.00 A Few Clouds FEW025 77 68 84.9 77 74% 79 30.08 1018.2
18 18:53 NE 14 10.00 A Few Clouds FEW027 78.1 66.9 69% 80 30.07 1017.9
18 17:53 NE 13 10.00 Fair CLR 80.1 66.9 64% 82 30.06 0.0
18 16:53 NE 14 10.00 Fair CLR 82.9 68 61% 86 30.06 0.0
18 15:53 NE 14 10.00 Fair CLR 82.9 68 61% 86 30.06 0.0
18 14:53 NE 13 10.00 A Few Clouds FEW027 84 68 59% 87 30.07 0.0
18 13:53 NE 14 10.00 Fair CLR 82.9 66.9 84 79 59% 86 30.08 0.0
18 12:53 NE 14 10.00 Partly Cloudy FEW026 SCT044 84 69.1 61% 88 30.09 0.0
18 11:53 NE 12 10.00 Fair CLR 84 68 59% 87 30.1 0.0
18 10:53 NE 13 10.00 Partly Cloudy SCT025 81 68 65% 84 30.11 0.0
18 09:53 NE 12 10.00 Fair CLR 82.9 68 61% 86 30.11 1019.2
18 08:53 E 12 10.00 Fair CLR 81 66.9 62% 83 30.1 1019.1
18 07:53 E 12 10.00 Fair CLR 75 66.9 76% 76 30.1 1019.0
18 06:53 NE 13 10.00 Mostly Cloudy SCT041 BKN049 75 66.9 76% 76 30.09 1018.5
18 05:53 NE 10 10.00 A Few Clouds FEW048 75.2 66.2 74% 77 30.06 0.0
18 04:53 E 12 10.00 Mostly Cloudy SCT023 BKN047 0 0 0% 30.06 0.0
18 03:53 E 12 10.00 A Few Clouds FEW047 0 0 0% 30.04 0.0
18 02:53 NE 14 10.00 Overcast FEW022 SCT027 OVC046 0 0 0% 30.04 0.0
18 01:53 NE 13 10.00 Fair CLR 0 0 0% 30.05 0.0
18 00:53 NE 16 10.00 Mostly Cloudy FEW020 BKN046 0 0 0% 30.07 0.0
17 23:53 NE 12 10.00 Mostly Cloudy FEW019 SCT028 BKN038 0 0 0% 30.09 0.0
17 22:53 NE 14 10.00 Mostly Cloudy BKN040 0 0 0% 30.1 0.0
17 21:53 NE 14 10.00 Mostly Cloudy BKN042 75.9 70 82% 77 30.09 1018.7
17 20:53 NE 15 10.00 Mostly Cloudy FEW022 BKN036 77 69.1 77% 79 30.08 1018.3
17 19:53 NE 13 10.00 Mostly Cloudy SCT021 BKN040 75.9 69.1 81 73.9 79% 77 30.07 1018.0
17 18:53 N 16 10.00 Mostly Cloudy FEW018 SCT025 BKN033 77 70 79% 79 30.06 1017.7
17 17:53 NE 14 10.00 Mostly Cloudy FEW018 SCT025 BKN034 79 70 74% 82 30.05 1017.4
17 16:53 N 14 10.00 Fair CLR 80.1 68 67% 83 30.05 1017.1
17 15:53 N 12 10.00 A Few Clouds FEW055 79 68 69% 81 30.06 1017.5
Date Time (hst) Wind (mph) Vis. (mi.) Weather Sky Cond. Air Dwpt Max. Min. Relative Humidity Wind Chill (°F) Heat Index (°F) altimeter (in) sea level (mb) 1 hr 3 hr 6 hr
6 hour
Temperature (ºF) Pressure Precipitation (in)